Location: Eppenbrunn
(49.1158°N, 7.5601°E)
Time: 23:27:26
(UTC+00:00)

STARLINK-1240 - Pass Details

Date: 09 April 2020
Orbit: 549 x 551 km, 53.0° (Epoch: 24 May)

Event Time Altitude Azimuth Distance (km) Brightness Sun altitude
Rises 20:19:54 0° 294° (WNW) 2,777 8.6 -19.3°
Reaches altitude 10° 20:22:11 10° 290° (WNW) 1,880 7.4 -19.6°
Maximum altitude 20:26:23 55° 213° (SSW) 693 4.0 -20.1°
Enters shadow 20:27:07 48° 174° (S) 760 4.0 -20.2°
